sat.trackr.live / text

‹ back to catalog

STARLINK-33890

NORAD 65332 · 2025-189K

PAYLOAD ACTIVE UNKNOWN

§ Identity

Operator
Country
US
Launch date
2025-08-27
Launch site
AFETR
Launch vehicle
Mass (kg)
RCS (m²)

Purposes: comms

External: N2YO · Heavens-Above · Gunter

§ Orbital elements

Epoch: 2026-05-25T04:26:59.657280Z

Period
94.01 min
Inclination
53.1591°
Eccentricity
0.0001556
Mean motion
15.31725581 rev/d
Perigee alt
469.6 km
Apogee alt
471.7 km
Semi-major
6,848.8 km
B*
6.4834e-4
RAAN
211.0654°
Arg perigee
99.0108°
Mean anomaly
261.1070°
Rev number
4,162

§ Raw data

STARLINK-338901 65332U 25189K   26145.18541270  .00019823  00000+0  64834-3 0  99902 65332  53.1591 211.0654 0001556  99.0108 261.1070 15.31725581 41626

JSON: /api/v1/satellites/65332 · /tle

For live sub-satellite position, see the globe view (requires WebGL).

§ Visibility from observer

Set your observer location to see the next 7 days of passes ≥ 10°. The values pass through the URL so the page stays shareable.

No JS? Fill the form by hand. The geolocation button needs JavaScript.